Weather Roundup
Issued by NWS Chicago, IL

Home | Current Version | Previous Version | Graphics & Text | Print | Product List | Glossary On
Versions: 1 2 3 4 5 6 7 8 9 10 11 12 13 14 15 16 17 18 19 20 21 22 23 24 25 26 27 28 29 30 31 32 33 34 35 36 37 38 39 40 41 42 43 44 45 46 47 48 49 50
000
NZUS59 KLOT 211310
HRRLOT

CHICAGO AREA WEATHER ROUNDUP
NATIONAL WEATHER SERVICE CHICAGO/ROMEOVILLE IL
800 AM CDT TUE OCT 21 2014

NOTE: "FAIR" INDICATES FEW OR NO CLOUDS BELOW 12,000 FEET WITH NO
SIGNIFICANT WEATHER AND/OR OBSTRUCTIONS TO VISIBILITY.

* THESE STATIONS ARE NOT UNDER NWS QUALITY CONTROL. THEY ALSO MAY NOT
  REPORT WEATHER SUCH AS PRECIPITATION OR FOG.

ILZ005-006-012>014-019>023-211400-
NORTHEAST ILLINOIS

CITY           SKY/WX    TMP DP  RH WIND       PRES   REMARKS
OHARE          MOCLDY    46  39  76 N14       30.12R
MIDWAY         MOCLDY    49  41  74 N9        30.12R
AURORA         CLEAR     44  38  79 N8        30.14R
LANSING*       CLOUDY    49  41  74 N10       30.11R
JOLIET*        PTCLDY    47  40  77 N8        30.13R
WAUKEGAN       CLOUDY    45  38  76 NW7       30.13R
DUPAGE AIRPORT PTCLDY    44  39  82 N7        30.13R
WHEELING       MOCLDY    47  40  76 N8        30.14R
KANKAKEE*      CLOUDY    49  44  83 N6        30.11R
MORRIS*        CLOUDY    45  42  90 N3        30.12R
LEWIS AIRPORT* CLEAR     46  40  77 N8        30.13R
NORTHERLY IS     N/A     50  42  74 NW16        N/A
$$

WIZ051-052-058>065-066-070>072-211400-
SOUTHEAST WISCONSIN

CITY           SKY/WX    TMP DP  RH WIND       PRES   REMARKS
MILWAUKEE      MOCLDY    46  38  73 N12       30.14R
KENOSHA*       MOCLDY    44  39  82 NW7       30.14R
RACINE*        CLOUDY    46  39  76 NW10      30.15R
BURLINGTON     CLEAR     41  37  83 N6        30.15R
WAUKESHA       CLOUDY    43  37  81 N9        30.15R
WEST BEND      CLOUDY    43  36  75 N13       30.15R
$$

INZ001>003-010>013-019-020-211400-
NORTHWEST INDIANA

CITY           SKY/WX    TMP DP  RH WIND       PRES   REMARKS
GARY*          NOT AVBL
MICHIGAN CITY* NOT AVBL
RENSSELAER*    NOT AVBL
VALPARAISO     MOCLDY    48  42  80 N7        30.09R
$$

LMZ740>746-211400-
SOUTHERN LAKE MICHIGAN

STATION/POSITION TIME  SKY/WX   TEMP WIND        PRES    VSBY
                                AIR  DIR/SP/G
                 (UTC)          (F)  (DEG/KT/KT) (MB)    (MI)
HARRISON CRIB    1300            50  350/ 23/ 27   N/A
BURNHAM HARBOR   1300            49  320/  8/ 17   N/A
CALUMET HARBOR   1300            50  320/  7/ 12 1018.1R
BURNS HARBOR     NOT AVBL
MICHIGAN CITY    1300            50  330/ 27/ 32   N/A
$$

ABBREVIATIONS USED IN REMARKS
   TC - TEMPERATURE IN CELSIUS
  WCI - WIND CHILL INDEX
   HX - HEAT INDEX
  VSB - VISIBILITY
$$


USA.gov is the U.S. government's official web portal to all federal, state and local government web resources and services.